Weather History for PAWM - December, 2013

Change the Weather History Date:

Sunday, December 1, 2013

  Actual Average (PAKK) Record (PAKK)
Temperature  
Mean Temperature 22 °F -  
Max Temperature 25 °F 10 °F 42 °F (2007)
Min Temperature 19 °F 2 °F -22 °F (2000)
Degree Days  
Heating Degree Days 43    
Moisture  
Dew Point 21 °F    
Average Humidity 94    
Maximum Humidity 100    
Minimum Humidity 86    
Precipitation  
Precipitation 0.00 in - - ()
Sea Level Pressure  
Sea Level Pressure 30.59 in    
Wind  
Wind Speed 5 mph (ESE)    
Max Wind Speed 8 mph    
Max Gust Speed -    
Visibility 6 miles    
Events Snow    
Averages and records for this station are not official NWS values.
T = Trace of Precipitation, MM = Missing Value Source: NWS Daily Summary

Daily Weather History Graph

Daily Weather History Graph

Search for Another Location

Airport or City:

Trip Planner

Search our weather history database for the weather conditions in past years. The results will help you decide how hot, cold, wet, or windy it might be!

Date:

Astronomy

Dec. 01, 2013 Rise Set
Actual Time 11:20 AM AKST 4:04 PM AKST
Civil Twilight 10:06 AM AKST 5:18 PM AKST
Nautical Twilight 8:58 AM AKST 6:26 PM AKST
Astronomical Twilight 7:59 AM AKST 7:26 PM AKST
Moon 9:17 AM AKST (12/1) 3:56 PM AKST (12/1)
Length of Visible Light 7h 12m
Length of Day
4h 43m
Waning Crescent, 2% of the Moon is Illuminated
Dec 1
Waning Crescent
Dec 2
New
Dec 9
First Quarter
Dec 17
Full
Dec 25
Last Quarter

Hourly Weather History & Observations

Time (AKST) Temp. Windchill Dew Point Humidity Pressure Visibility Wind Dir Wind Speed Gust Speed Precip Events Conditions
12:58 AM 25.0 °F 18.1 °F 24.1 °F 96% 30.59 in 6.0 mi South 5.8 mph - 0.00 in Snow Light Snow
1:58 AM 24.1 °F 16.0 °F 24.1 °F 100% 30.59 in 6.0 mi South 6.9 mph - 0.00 in Snow Light Snow
2:58 AM 24.1 °F 16.0 °F 23.0 °F 96% 30.60 in 6.0 mi SSE 6.9 mph - 0.00 in Snow Light Snow
3:58 AM 24.1 °F 16.0 °F 23.0 °F 96% 30.61 in 7.0 mi SE 6.9 mph - 0.00 in Snow Light Snow
4:58 AM 24.1 °F 17.0 °F 23.0 °F 96% 30.61 in 7.0 mi SSE 5.8 mph - 0.00 in   Overcast
5:58 AM 23.0 °F 17.0 °F 21.9 °F 96% 30.61 in 6.0 mi ESE 4.6 mph - 0.00 in Snow Light Snow
6:58 AM 23.0 °F 17.0 °F 21.9 °F 96% 30.61 in 7.0 mi SSE 4.6 mph - 0.00 in   Overcast
7:58 AM 24.1 °F 19.7 °F 23.0 °F 96% 30.62 in 5.0 mi SE 3.5 mph - 0.00 in Snow Light Snow
8:58 AM 24.1 °F 18.2 °F 21.9 °F 91% 30.62 in 6.0 mi SE 4.6 mph - 0.00 in   Overcast
9:03 AM 24.8 °F 19.1 °F 21.2 °F 86% 30.58 in 5.0 mi ESE 4.6 mph - N/A   Overcast
9:58 AM 23.0 °F 15.8 °F 21.9 °F 96% 30.62 in 7.0 mi SE 5.8 mph - N/A   Overcast
10:50 AM 23.0 °F 18.4 °F 21.2 °F 93% 30.59 in 6.0 mi ESE 3.5 mph - N/A   Overcast
10:58 AM 23.0 °F 17.0 °F 21.9 °F 96% 30.63 in 5.0 mi ESE 4.6 mph - N/A   Overcast
11:25 AM 23.0 °F 18.4 °F 21.2 °F 93% 30.58 in 5.0 mi ESE 3.5 mph - N/A   Overcast
11:58 AM 24.1 °F - 21.9 °F 91% 30.62 in 5.0 mi Calm Calm - N/A   Overcast
12:44 PM 24.8 °F 17.9 °F 21.2 °F 86% 30.58 in 5.0 mi ESE 5.8 mph - N/A   Overcast
12:58 PM 24.1 °F 19.7 °F 21.9 °F 91% 30.61 in 5.0 mi ESE 3.5 mph - N/A   Overcast
1:58 PM 23.0 °F - 21.9 °F 96% 30.62 in 5.0 mi Calm Calm - N/A   Overcast
2:58 PM 24.1 °F 19.7 °F 21.9 °F 91% 30.61 in 5.0 mi ESE 3.5 mph - N/A   Overcast
3:29 PM 23.0 °F - 21.2 °F 93% 30.57 in 5.0 mi Calm Calm - N/A   Overcast
3:58 PM 23.0 °F - 21.9 °F 96% 30.61 in 5.0 mi Calm Calm - N/A   Overcast
4:58 PM 23.0 °F - 21.9 °F 96% 30.61 in 6.0 mi Calm Calm - N/A   Overcast
5:03 PM 23.0 °F - 21.2 °F 93% 30.57 in 7.0 mi Calm Calm - N/A   Overcast
5:58 PM 21.9 °F - 21.0 °F 96% 30.60 in 7.0 mi Calm Calm - N/A   Overcast
6:31 PM 21.2 °F 16.4 °F 19.4 °F 93% 30.56 in 7.0 mi NE 3.5 mph - N/A   Scattered Clouds
6:58 PM 21.0 °F 14.6 °F 19.0 °F 92% 30.60 in 7.0 mi East 4.6 mph - N/A   Clear
7:58 PM 19.0 °F 12.3 °F 18.0 °F 96% 30.58 in 7.0 mi East 4.6 mph - N/A   Clear
8:58 PM 19.9 °F 13.4 °F 18.0 °F 92% 30.56 in 7.0 mi NE 4.6 mph - N/A   Clear
9:58 PM 19.9 °F 10.1 °F 18.0 °F 92% 30.53 in 7.0 mi North 8.1 mph - N/A   Clear
10:58 PM 19.0 °F 10.0 °F 18.0 °F 96% 30.52 in 8.0 mi NNE 6.9 mph - N/A   Clear
11:58 PM 19.0 °F 10.0 °F 17.1 °F 92% 30.51 in 7.0 mi North 6.9 mph - N/A   Clear